EJM550 KMFR-KRNO

Flight info

Callsign EJM550
Flight time 1h 1m
Altitude 27000
Route FMG
Aircraft C550/L-SDFGHRWY/S

Departure

Time 2026-04-21 20:16
Airport Rogue Valley International-Medford Airport (KMFR)

Arrival

Time 2026-04-21 21:18
Airport Reno Tahoe International Airport (KRNO)
Time Latitude Longitude Altitude Speed Heading
2026-04-21 19:55 42.36874 -122.87263 1339 ft 0 kts 249°
2026-04-21 20:05 42.36876 -122.87254 1339 ft 2 kts 257°
2026-04-21 20:05 42.36877 -122.87230 1339 ft 3 kts 280°
2026-04-21 20:05 42.36869 -122.87206 1339 ft 2 kts 305°
2026-04-21 20:05 42.36875 -122.87212 1339 ft 4 kts 325°
2026-04-21 20:06 42.36906 -122.87239 1339 ft 6 kts 342°
2026-04-21 20:06 42.36908 -122.87239 1339 ft 0 kts 342°
2026-04-21 20:06 42.36908 -122.87240 1339 ft 0 kts 342°
2026-04-21 20:07 42.36909 -122.87240 1339 ft 0 kts 342°
2026-04-21 20:07 42.36935 -122.87271 1339 ft 3 kts 263°
2026-04-21 20:08 42.36943 -122.87292 1339 ft 4 kts 321°
2026-04-21 20:08 42.36993 -122.87330 1339 ft 11 kts 333°
2026-04-21 20:08 42.37053 -122.87388 1339 ft 10 kts 316°
2026-04-21 20:08 42.37091 -122.87460 1339 ft 9 kts 311°
2026-04-21 20:09 42.37142 -122.87499 1339 ft 8 kts 338°
2026-04-21 20:09 42.37180 -122.87550 1339 ft 9 kts 292°
2026-04-21 20:09 42.37206 -122.87630 1339 ft 9 kts 300°
2026-04-21 20:09 42.37219 -122.87647 1339 ft 4 kts 297°
2026-04-21 20:10 42.37234 -122.87694 1339 ft 6 kts 291°
2026-04-21 20:10 42.37253 -122.87751 1339 ft 10 kts 298°
2026-04-21 20:10 42.37323 -122.87813 1339 ft 12 kts
2026-04-21 20:10 42.37399 -122.87899 1339 ft 18 kts 337°
2026-04-21 20:11 42.37531 -122.87934 1339 ft 19 kts 354°
2026-04-21 20:11 42.37617 -122.87863 1339 ft 14 kts 27°
2026-04-21 20:11 42.37654 -122.87939 1339 ft 14 kts 240°
2026-04-21 20:11 42.37644 -122.88047 1339 ft 11 kts 339°
2026-04-21 20:12 42.37718 -122.88022 1339 ft 12 kts 27°
2026-04-21 20:12 42.37789 -122.87955 1339 ft 12 kts 32°
2026-04-21 20:12 42.37839 -122.87921 1339 ft 12 kts 25°
2026-04-21 20:12 42.37910 -122.87876 1339 ft 11 kts 20°
2026-04-21 20:13 42.37981 -122.87903 1339 ft 11 kts 314°
2026-04-21 20:13 42.37960 -122.87938 1339 ft 10 kts 128°
2026-04-21 20:13 42.37992 -122.87819 1339 ft 20 kts 35°
2026-04-21 20:13 42.38119 -122.87815 1339 ft 19 kts 342°
2026-04-21 20:14 42.38273 -122.87893 1339 ft 28 kts 338°
2026-04-21 20:14 42.38457 -122.87988 1339 ft 26 kts 339°
2026-04-21 20:14 42.38559 -122.87997 1339 ft 13 kts 68°
2026-04-21 20:14 42.38566 -122.87969 1339 ft 0 kts 75°
2026-04-21 20:15 42.38567 -122.87961 1339 ft 5 kts 75°
2026-04-21 20:15 42.38559 -122.87880 1339 ft 11 kts 151°
2026-04-21 20:15 42.38468 -122.87835 1339 ft 24 kts 159°
2026-04-21 20:15 42.38118 -122.87655 1339 ft 85 kts 161°
2026-04-21 20:16 42.37383 -122.87272 1424 ft 133 kts 160°
2026-04-21 20:16 42.36420 -122.86822 1724 ft 162 kts 163°
2026-04-21 20:16 42.35340 -122.86288 2357 ft 165 kts 151°
2026-04-21 20:16 42.34489 -122.85255 3032 ft 168 kts 128°
2026-04-21 20:17 42.33691 -122.84042 3559 ft 178 kts 136°
2026-04-21 20:17 42.32742 -122.82948 4074 ft 184 kts 143°
2026-04-21 20:17 42.31685 -122.81957 4647 ft 189 kts 143°
2026-04-21 20:17 42.30746 -122.80643 5037 ft 202 kts 130°
2026-04-21 20:18 42.29798 -122.79130 5485 ft 216 kts 131°
2026-04-21 20:18 42.28778 -122.77603 6097 ft 222 kts 133°
2026-04-21 20:18 42.27697 -122.76090 6702 ft 225 kts 135°
2026-04-21 20:18 42.26574 -122.74595 7305 ft 228 kts 136°
2026-04-21 20:19 42.25418 -122.73108 7908 ft 230 kts 137°
2026-04-21 20:19 42.24243 -122.71633 8510 ft 231 kts 137°
2026-04-21 20:19 42.23058 -122.70169 9110 ft 231 kts 138°
2026-04-21 20:19 42.21865 -122.68711 9690 ft 232 kts 138°
2026-04-21 20:20 42.20653 -122.67242 10167 ft 236 kts 138°
2026-04-21 20:20 42.19420 -122.65757 10645 ft 239 kts 138°
2026-04-21 20:20 42.18171 -122.64258 11123 ft 241 kts 138°
2026-04-21 20:20 42.16913 -122.62752 11598 ft 243 kts 138°
2026-04-21 20:21 42.15647 -122.61240 12074 ft 243 kts 138°
2026-04-21 20:21 42.14395 -122.59748 12544 ft 243 kts 138°
2026-04-21 20:21 42.13128 -122.58240 13019 ft 243 kts 138°
2026-04-21 20:21 42.11866 -122.56738 13494 ft 242 kts 138°
2026-04-21 20:22 42.10609 -122.55245 13968 ft 240 kts 138°
2026-04-21 20:22 42.08116 -122.52286 14882 ft 238 kts 138°
2026-04-21 20:22 42.06868 -122.50806 15258 ft 240 kts 138°
2026-04-21 20:23 42.05604 -122.49308 15589 ft 243 kts 138°
2026-04-21 20:23 42.04328 -122.47797 15916 ft 246 kts 138°
2026-04-21 20:23 42.03051 -122.46286 16241 ft 247 kts 138°
2026-04-21 20:23 42.01756 -122.44755 16567 ft 249 kts 138°
2026-04-21 20:24 42.00454 -122.43216 16893 ft 249 kts 138°
2026-04-21 20:24 41.99148 -122.41673 17219 ft 250 kts 138°
2026-04-21 20:24 41.97844 -122.40134 17544 ft 250 kts 138°
2026-04-21 20:24 41.96537 -122.38592 17870 ft 249 kts 138°
2026-04-21 20:25 41.95234 -122.37055 18195 ft 249 kts 138°
2026-04-21 20:25 41.93932 -122.35522 18520 ft 248 kts 138°
2026-04-21 20:25 41.92638 -122.33998 18844 ft 248 kts 138°
2026-04-21 20:25 41.91343 -122.32474 19168 ft 247 kts 138°
2026-04-21 20:26 41.90053 -122.30955 19494 ft 246 kts 138°
2026-04-21 20:26 41.88766 -122.29442 19818 ft 246 kts 138°
2026-04-21 20:26 41.87482 -122.27932 20143 ft 245 kts 139°
2026-04-21 20:26 41.86202 -122.26429 20467 ft 244 kts 139°
2026-04-21 20:27 41.84929 -122.24936 20790 ft 243 kts 139°
2026-04-21 20:27 41.83674 -122.23463 21110 ft 242 kts 139°
2026-04-21 20:27 41.82413 -122.21984 21434 ft 240 kts 139°
2026-04-21 20:27 41.81159 -122.20515 21757 ft 239 kts 139°
2026-04-21 20:28 41.79912 -122.19054 22081 ft 237 kts 139°
2026-04-21 20:28 41.78671 -122.17601 22404 ft 235 kts 139°
2026-04-21 20:28 41.77444 -122.16165 22727 ft 234 kts 139°
2026-04-21 20:28 41.76224 -122.14738 23042 ft 232 kts 139°
2026-04-21 20:29 41.75010 -122.13320 23345 ft 231 kts 139°
2026-04-21 20:29 41.73806 -122.11913 23644 ft 229 kts 139°
2026-04-21 20:29 41.72607 -122.10513 23939 ft 228 kts 139°
2026-04-21 20:29 41.71410 -122.09116 24205 ft 228 kts 139°
2026-04-21 20:30 41.70216 -122.07723 24458 ft 228 kts 139°
2026-04-21 20:30 41.69016 -122.06324 24710 ft 228 kts 139°
2026-04-21 20:30 41.67817 -122.04928 24955 ft 229 kts 139°
2026-04-21 20:30 41.66615 -122.03528 25185 ft 229 kts 139°
2026-04-21 20:31 41.65407 -122.02122 25413 ft 230 kts 138°
2026-04-21 20:31 41.64217 -122.00737 25635 ft 230 kts 138°
2026-04-21 20:31 41.63009 -121.99332 25862 ft 230 kts 138°
2026-04-21 20:31 41.61802 -121.97930 26088 ft 230 kts 138°
2026-04-21 20:32 41.60595 -121.96528 26313 ft 229 kts 138°
2026-04-21 20:32 41.59393 -121.95131 26537 ft 229 kts 138°
2026-04-21 20:32 41.58189 -121.93735 26717 ft 230 kts 138°
2026-04-21 20:32 41.56969 -121.92319 26817 ft 235 kts 138°
2026-04-21 20:33 41.55715 -121.90865 26845 ft 242 kts 138°
2026-04-21 20:33 41.54420 -121.89364 26848 ft 249 kts 138°
2026-04-21 20:33 41.53092 -121.87825 26847 ft 256 kts 138°
2026-04-21 20:33 41.51728 -121.86246 26846 ft 262 kts 139°
2026-04-21 20:34 41.50337 -121.84638 26846 ft 268 kts 139°
2026-04-21 20:34 41.48917 -121.82996 26846 ft 273 kts 139°
2026-04-21 20:34 41.47483 -121.81340 26847 ft 278 kts 139°
2026-04-21 20:34 41.46005 -121.79634 26848 ft 283 kts 139°
2026-04-21 20:35 41.44504 -121.77903 26848 ft 288 kts 139°
2026-04-21 20:35 41.42979 -121.76144 26848 ft 292 kts 139°
2026-04-21 20:35 41.41433 -121.74364 26848 ft 296 kts 139°
2026-04-21 20:35 41.39865 -121.72559 26848 ft 300 kts 139°
2026-04-21 20:36 41.38277 -121.70732 26850 ft 303 kts 139°
2026-04-21 20:36 41.36671 -121.68885 26852 ft 307 kts 139°
2026-04-21 20:36 41.35045 -121.67017 26853 ft 310 kts 139°
2026-04-21 20:36 41.33403 -121.65132 26853 ft 313 kts 139°
2026-04-21 20:37 41.31745 -121.63228 26854 ft 316 kts 139°
2026-04-21 20:37 41.30074 -121.61310 26859 ft 319 kts 140°
2026-04-21 20:37 41.28406 -121.59399 26862 ft 322 kts 140°
2026-04-21 20:37 41.26703 -121.57449 26863 ft 324 kts 140°
2026-04-21 20:38 41.24989 -121.55489 26863 ft 326 kts 140°
2026-04-21 20:38 41.23259 -121.53511 26863 ft 328 kts 140°
2026-04-21 20:38 41.21525 -121.51530 26863 ft 329 kts 140°
2026-04-21 20:38 41.19788 -121.49547 26863 ft 329 kts 140°
2026-04-21 20:39 41.18045 -121.47558 26863 ft 330 kts 140°
2026-04-21 20:39 41.16302 -121.45571 26864 ft 330 kts 140°
2026-04-21 20:39 41.14578 -121.43607 26864 ft 330 kts 140°
2026-04-21 20:39 41.12831 -121.41618 26864 ft 330 kts 140°
2026-04-21 20:40 41.11086 -121.39632 26864 ft 330 kts 140°
2026-04-21 20:40 41.09341 -121.37648 26865 ft 330 kts 140°
2026-04-21 20:40 41.07594 -121.35663 26865 ft 330 kts 141°
2026-04-21 20:40 41.05847 -121.33680 26865 ft 331 kts 141°
2026-04-21 20:41 41.04101 -121.31699 26866 ft 331 kts 141°
2026-04-21 20:41 41.02352 -121.29717 26866 ft 331 kts 141°
2026-04-21 20:41 41.00605 -121.27738 26866 ft 331 kts 141°
2026-04-21 20:41 40.98855 -121.25757 26867 ft 331 kts 141°
2026-04-21 20:42 40.97102 -121.23774 26867 ft 331 kts 141°
2026-04-21 20:42 40.95352 -121.21796 26871 ft 331 kts 141°
2026-04-21 20:42 40.93605 -121.19823 26873 ft 331 kts 141°
2026-04-21 20:42 40.91856 -121.17848 26873 ft 331 kts 141°
2026-04-21 20:43 40.90124 -121.15895 26874 ft 331 kts 141°
2026-04-21 20:43 40.88369 -121.13917 26875 ft 331 kts 141°
2026-04-21 20:43 40.86617 -121.11944 26876 ft 331 kts 141°
2026-04-21 20:43 40.84862 -121.09968 26876 ft 331 kts 141°
2026-04-21 20:44 40.83104 -121.07991 26877 ft 331 kts 141°
2026-04-21 20:44 40.81347 -121.06017 26878 ft 332 kts 141°
2026-04-21 20:44 40.79590 -121.04043 26878 ft 332 kts 141°
2026-04-21 20:44 40.77859 -121.02101 26879 ft 332 kts 141°
2026-04-21 20:45 40.76068 -121.00093 26879 ft 332 kts 141°
2026-04-21 20:45 40.74305 -120.98117 26880 ft 332 kts 141°
2026-04-21 20:45 40.72536 -120.96137 26881 ft 333 kts 142°
2026-04-21 20:45 40.70788 -120.94181 26882 ft 333 kts 142°
2026-04-21 20:46 40.69025 -120.92209 26882 ft 333 kts 142°
2026-04-21 20:46 40.67255 -120.90231 26883 ft 333 kts 142°
2026-04-21 20:46 40.65484 -120.88251 26882 ft 334 kts 142°
2026-04-21 20:46 40.63709 -120.86266 26880 ft 334 kts 142°
2026-04-21 20:47 40.61934 -120.84286 26883 ft 334 kts 142°
2026-04-21 20:47 40.60160 -120.82309 26885 ft 334 kts 142°
2026-04-21 20:47 40.58383 -120.80329 26883 ft 335 kts 142°
2026-04-21 20:47 40.56609 -120.78355 26884 ft 335 kts 142°
2026-04-21 20:48 40.54827 -120.76376 26886 ft 335 kts 142°
2026-04-21 20:48 40.53065 -120.74419 26886 ft 335 kts 142°
2026-04-21 20:48 40.51280 -120.72438 26884 ft 336 kts 142°
2026-04-21 20:48 40.49494 -120.70455 26886 ft 336 kts 142°
2026-04-21 20:49 40.47700 -120.68466 26887 ft 337 kts 142°
2026-04-21 20:49 40.45910 -120.66485 26877 ft 337 kts 143°
2026-04-21 20:49 40.44100 -120.64484 26642 ft 344 kts 143°
2026-04-21 20:49 40.42239 -120.62431 26233 ft 353 kts 143°
2026-04-21 20:50 40.40350 -120.60348 25791 ft 355 kts 143°
2026-04-21 20:50 40.38489 -120.58294 25348 ft 352 kts 143°
2026-04-21 20:50 40.36608 -120.56217 24897 ft 353 kts 143°
2026-04-21 20:50 40.34734 -120.54150 24447 ft 352 kts 143°
2026-04-21 20:51 40.32856 -120.52079 23997 ft 353 kts 143°
2026-04-21 20:51 40.30980 -120.50012 23545 ft 350 kts 143°
2026-04-21 20:51 40.29121 -120.47964 23094 ft 347 kts 143°
2026-04-21 20:51 40.27274 -120.45930 22643 ft 346 kts 143°
2026-04-21 20:52 40.25432 -120.43905 22192 ft 346 kts 143°
2026-04-21 20:52 40.23588 -120.41881 21742 ft 346 kts 143°
2026-04-21 20:52 40.21767 -120.39884 21298 ft 346 kts 143°
2026-04-21 20:52 40.19924 -120.37864 20848 ft 346 kts 143°
2026-04-21 20:53 40.18079 -120.35843 20398 ft 346 kts 143°
2026-04-21 20:53 40.16230 -120.33819 19948 ft 346 kts 143°
2026-04-21 20:53 40.14393 -120.31809 19498 ft 338 kts 143°
2026-04-21 20:53 40.12632 -120.29879 19045 ft 323 kts 143°
2026-04-21 20:54 40.10943 -120.28023 18592 ft 311 kts 143°
2026-04-21 20:54 40.09306 -120.26228 18171 ft 305 kts 144°
2026-04-21 20:54 40.07698 -120.24474 17773 ft 306 kts 144°
2026-04-21 20:54 40.06040 -120.22669 17368 ft 306 kts 144°
2026-04-21 20:55 40.04400 -120.20887 16967 ft 306 kts 144°
2026-04-21 20:55 40.02766 -120.19110 16567 ft 306 kts 144°
2026-04-21 20:55 40.01128 -120.17335 16165 ft 305 kts 144°
2026-04-21 20:55 39.99498 -120.15566 15766 ft 305 kts 144°
2026-04-21 20:56 39.97890 -120.13817 15369 ft 304 kts 144°
2026-04-21 20:56 39.96263 -120.12051 14970 ft 304 kts 144°
2026-04-21 20:56 39.94643 -120.10291 14590 ft 303 kts 144°
2026-04-21 20:56 39.93033 -120.08544 14284 ft 299 kts 144°
2026-04-21 20:57 39.91433 -120.06813 13984 ft 297 kts 144°
2026-04-21 20:57 39.89844 -120.05088 13683 ft 296 kts 144°
2026-04-21 20:57 39.88265 -120.03371 13385 ft 295 kts 144°
2026-04-21 20:57 39.86686 -120.01662 13083 ft 295 kts 144°
2026-04-21 20:58 39.85111 -119.99959 12783 ft 294 kts 144°
2026-04-21 20:58 39.83537 -119.98256 12480 ft 293 kts 144°
2026-04-21 20:58 39.81971 -119.96563 12215 ft 292 kts 144°
2026-04-21 20:58 39.80435 -119.94908 12079 ft 287 kts 144°
2026-04-21 20:59 39.78911 -119.93258 12019 ft 282 kts 144°
2026-04-21 20:59 39.77410 -119.91637 12015 ft 277 kts 144°
2026-04-21 20:59 39.75941 -119.90053 12013 ft 273 kts 144°
2026-04-21 20:59 39.74494 -119.88494 12010 ft 266 kts 145°
2026-04-21 21:00 39.73556 -119.87488 12009 ft 262 kts 145°
2026-04-21 21:00 39.72164 -119.85995 12006 ft 256 kts 145°
2026-04-21 21:00 39.70803 -119.84530 12005 ft 252 kts 145°
2026-04-21 21:00 39.69038 -119.82628 12002 ft 246 kts 145°
2026-04-21 21:01 39.68149 -119.81675 11934 ft 246 kts 146°
2026-04-21 21:01 39.66819 -119.80259 11690 ft 248 kts 145°
2026-04-21 21:01 39.65505 -119.78858 11439 ft 247 kts 145°
2026-04-21 21:01 39.64178 -119.77440 11191 ft 247 kts 145°
2026-04-21 21:02 39.62850 -119.76021 10941 ft 247 kts 144°
2026-04-21 21:02 39.61523 -119.74603 10687 ft 247 kts 144°
2026-04-21 21:02 39.60200 -119.73183 10445 ft 247 kts 144°
2026-04-21 21:02 39.58879 -119.71763 10189 ft 245 kts 143°
2026-04-21 21:03 39.57566 -119.70355 9937 ft 245 kts 143°
2026-04-21 21:03 39.56253 -119.68950 9691 ft 244 kts 143°
2026-04-21 21:03 39.54950 -119.67526 9435 ft 246 kts 139°
2026-04-21 21:03 39.54107 -119.65611 9177 ft 251 kts 105°
2026-04-21 21:04 39.54235 -119.63415 8932 ft 243 kts 70°
2026-04-21 21:04 39.55275 -119.61788 8683 ft 233 kts 33°
2026-04-21 21:04 39.56800 -119.61305 8437 ft 226 kts 355°
2026-04-21 21:04 39.58303 -119.61766 8221 ft 219 kts 340°
2026-04-21 21:05 39.59717 -119.62408 8080 ft 212 kts 340°
2026-04-21 21:05 39.61099 -119.62893 8011 ft 204 kts 347°
2026-04-21 21:05 39.62477 -119.63139 8003 ft 196 kts 355°
2026-04-21 21:05 39.63817 -119.63178 8011 ft 188 kts
2026-04-21 21:06 39.65079 -119.63077 8340 ft 179 kts
2026-04-21 21:06 39.66307 -119.62901 8709 ft 176 kts
2026-04-21 21:06 39.67540 -119.62680 8928 ft 184 kts
2026-04-21 21:06 39.68853 -119.62445 8991 ft 197 kts
2026-04-21 21:07 39.70251 -119.62404 9007 ft 204 kts 358°
2026-04-21 21:07 39.71691 -119.62507 9006 ft 210 kts 355°
2026-04-21 21:07 39.73166 -119.62678 9004 ft 215 kts 353°
2026-04-21 21:07 39.74665 -119.62879 9001 ft 217 kts 353°
2026-04-21 21:08 39.76165 -119.63093 8999 ft 216 kts 353°
2026-04-21 21:08 39.77647 -119.63308 8998 ft 213 kts 352°
2026-04-21 21:08 39.79118 -119.63521 8997 ft 212 kts 352°
2026-04-21 21:08 39.80533 -119.63904 8920 ft 212 kts 332°
2026-04-21 21:09 39.81530 -119.65243 8804 ft 208 kts 290°
2026-04-21 21:09 39.81741 -119.67074 8704 ft 205 kts 265°
2026-04-21 21:09 39.81618 -119.68921 8622 ft 205 kts 260°
2026-04-21 21:09 39.81440 -119.70751 8603 ft 203 kts 260°
2026-04-21 21:10 39.81292 -119.72554 8613 ft 193 kts 262°
2026-04-21 21:10 39.81196 -119.74189 8592 ft 173 kts 263°
2026-04-21 21:10 39.81100 -119.75749 8599 ft 173 kts 256°
2026-04-21 21:10 39.80446 -119.76978 8604 ft 168 kts 208°
2026-04-21 21:11 39.79306 -119.77246 8620 ft 168 kts 180°
2026-04-21 21:11 39.78127 -119.77134 8612 ft 172 kts 175°
2026-04-21 21:11 39.76933 -119.76952 8601 ft 173 kts 174°
2026-04-21 21:11 39.75736 -119.76792 8604 ft 173 kts 176°
2026-04-21 21:12 39.74529 -119.76688 8602 ft 174 kts 178°
2026-04-21 21:12 39.73322 -119.76674 8604 ft 173 kts 182°
2026-04-21 21:12 39.72117 -119.76781 8580 ft 175 kts 185°
2026-04-21 21:12 39.70923 -119.76916 8407 ft 174 kts 185°
2026-04-21 21:13 39.69712 -119.77059 8155 ft 175 kts 184°
2026-04-21 21:13 39.68483 -119.77057 7910 ft 176 kts 178°
2026-04-21 21:13 39.67254 -119.76983 7659 ft 177 kts 178°
2026-04-21 21:13 39.66024 -119.76917 7419 ft 177 kts 180°
2026-04-21 21:14 39.64791 -119.76895 7221 ft 174 kts 178°
2026-04-21 21:14 39.63610 -119.76831 7129 ft 168 kts 178°
2026-04-21 21:14 39.62435 -119.76793 6885 ft 170 kts 179°
2026-04-21 21:14 39.61243 -119.76803 6598 ft 168 kts 181°
2026-04-21 21:15 39.60171 -119.76841 6341 ft 147 kts 182°
2026-04-21 21:15 39.59210 -119.76880 6068 ft 133 kts 182°
2026-04-21 21:15 39.58299 -119.76903 5847 ft 130 kts 181°
2026-04-21 21:15 39.57400 -119.76914 5681 ft 129 kts 181°
2026-04-21 21:16 39.56510 -119.76917 5538 ft 128 kts 181°
2026-04-21 21:16 39.55618 -119.76914 5360 ft 128 kts 181°
2026-04-21 21:16 39.54727 -119.76912 5193 ft 128 kts 181°
2026-04-21 21:16 39.53841 -119.76915 5037 ft 127 kts 181°
2026-04-21 21:17 39.52953 -119.76916 4854 ft 128 kts 181°
2026-04-21 21:17 39.52057 -119.76917 4679 ft 128 kts 181°
2026-04-21 21:17 39.51148 -119.76927 4457 ft 131 kts 181°
2026-04-21 21:17 39.50335 -119.76937 4419 ft 71 kts 180°
2026-04-21 21:18 39.50041 -119.76937 4419 ft 30 kts 177°
2026-04-21 21:18 39.49868 -119.76936 4419 ft 20 kts 182°
2026-04-21 21:18 39.49787 -119.76965 4419 ft 9 kts 236°
2026-04-21 21:18 39.49783 -119.77039 4419 ft 5 kts 271°